FFT1035 KTPA-KDTW

Flight info

Callsign FFT1035
Flight time 2h 17m
Altitude 36000
Route ENDED2 LACEN BRUTS Q118 THRSR/N0454F370 SMTTH Q67 HNN SUBWY CRAKN2
Aircraft A320/M-SDE3FGHIRWY/LB1

Departure

Time 2026-05-06 18:36
Airport Tampa International Airport (KTPA)

Arrival

Time 2026-05-06 20:54
Airport Detroit Metropolitan Wayne County Airport (KDTW)
Time Latitude Longitude Altitude Speed Heading
2026-05-06 18:11 27.97958 -82.53880 43 ft 0 kts 91°
2026-05-06 18:24 27.97959 -82.53906 42 ft 4 kts 91°
2026-05-06 18:24 27.97959 -82.53922 40 ft 1 kts 91°
2026-05-06 18:24 27.97959 -82.53924 40 ft 0 kts 91°
2026-05-06 18:27 27.97961 -82.53922 40 ft 1 kts 71°
2026-05-06 18:28 27.97965 -82.53922 41 ft 0 kts 24°
2026-05-06 18:28 27.97968 -82.53925 42 ft 0 kts 334°
2026-05-06 18:29 27.97997 -82.53954 46 ft 8 kts 311°
2026-05-06 18:29 27.98023 -82.53995 46 ft 7 kts 298°
2026-05-06 18:30 27.98042 -82.54036 47 ft 5 kts 313°
2026-05-06 18:30 27.98086 -82.54052 47 ft 8 kts 358°
2026-05-06 18:30 27.98135 -82.54051 47 ft 6 kts
2026-05-06 18:30 27.98204 -82.54049 48 ft 13 kts
2026-05-06 18:31 27.98290 -82.54045 46 ft 13 kts
2026-05-06 18:31 27.98397 -82.54042 48 ft 15 kts
2026-05-06 18:31 27.98498 -82.54038 47 ft 13 kts
2026-05-06 18:31 27.98596 -82.54035 48 ft 14 kts
2026-05-06 18:32 27.98690 -82.54032 48 ft 13 kts
2026-05-06 18:32 27.98795 -82.54029 48 ft 15 kts
2026-05-06 18:32 27.98896 -82.54025 47 ft 14 kts
2026-05-06 18:32 27.98986 -82.54022 46 ft 12 kts
2026-05-06 18:33 27.99073 -82.54019 47 ft 12 kts
2026-05-06 18:33 27.99157 -82.54016 46 ft 13 kts
2026-05-06 18:33 27.99235 -82.54014 46 ft 6 kts 358°
2026-05-06 18:33 27.99260 -82.54029 46 ft 0 kts 311°
2026-05-06 18:34 27.99266 -82.54042 43 ft 3 kts 295°
2026-05-06 18:34 27.99269 -82.54061 46 ft 2 kts 274°
2026-05-06 18:35 27.99269 -82.54088 46 ft 5 kts 270°
2026-05-06 18:35 27.99261 -82.54124 45 ft 5 kts 235°
2026-05-06 18:35 27.99222 -82.54138 47 ft 5 kts 182°
2026-05-06 18:35 27.99136 -82.54141 48 ft 37 kts 181°
2026-05-06 18:36 27.98631 -82.54157 51 ft 104 kts 181°
2026-05-06 18:36 27.97718 -82.54190 46 ft 156 kts 181°
2026-05-06 18:36 27.96549 -82.54212 435 ft 169 kts 180°
2026-05-06 18:36 27.95391 -82.54181 1190 ft 166 kts 182°
2026-05-06 18:37 27.94260 -82.54458 1946 ft 170 kts 198°
2026-05-06 18:37 27.93496 -82.54780 2271 ft 183 kts 200°
2026-05-06 18:37 27.91775 -82.55538 2637 ft 213 kts 200°
2026-05-06 18:37 27.90298 -82.56157 2924 ft 239 kts 199°
2026-05-06 18:38 27.88800 -82.57123 3396 ft 259 kts 223°
2026-05-06 18:38 27.87858 -82.58886 4103 ft 271 kts 255°
2026-05-06 18:38 27.87877 -82.61025 4890 ft 280 kts 288°
2026-05-06 18:38 27.88918 -82.62831 5631 ft 282 kts 322°
2026-05-06 18:39 27.90695 -82.63785 6462 ft 282 kts 346°
2026-05-06 18:39 27.92574 -82.64337 7259 ft 284 kts 347°
2026-05-06 18:39 27.94492 -82.64880 8063 ft 285 kts 347°
2026-05-06 18:40 27.98378 -82.65983 9586 ft 290 kts 346°
2026-05-06 18:40 28.00347 -82.66552 10291 ft 295 kts 346°
2026-05-06 18:40 28.02416 -82.67153 10498 ft 318 kts 346°
2026-05-06 18:40 28.04637 -82.67801 10664 ft 340 kts 345°
2026-05-06 18:41 28.06965 -82.68483 11133 ft 349 kts 345°
2026-05-06 18:41 28.09332 -82.69175 11779 ft 353 kts 345°
2026-05-06 18:41 28.11714 -82.69869 12462 ft 355 kts 345°
2026-05-06 18:41 28.14116 -82.70569 13134 ft 358 kts 345°
2026-05-06 18:42 28.16542 -82.71278 13793 ft 360 kts 345°
2026-05-06 18:42 28.18977 -82.71991 14369 ft 363 kts 345°
2026-05-06 18:42 28.21430 -82.72710 14945 ft 365 kts 345°
2026-05-06 18:42 28.23065 -82.73190 15299 ft 367 kts 344°
2026-05-06 18:43 28.25551 -82.73921 15833 ft 370 kts 344°
2026-05-06 18:43 28.28874 -82.74898 16541 ft 375 kts 344°
2026-05-06 18:43 28.31403 -82.75639 17053 ft 377 kts 344°
2026-05-06 18:43 28.33964 -82.76388 17568 ft 380 kts 343°
2026-05-06 18:44 28.36531 -82.77141 18056 ft 383 kts 343°
2026-05-06 18:44 28.39124 -82.77902 18532 ft 386 kts 343°
2026-05-06 18:44 28.41752 -82.78580 18954 ft 390 kts 349°
2026-05-06 18:44 28.43537 -82.78873 19240 ft 392 kts 349°
2026-05-06 18:45 28.46238 -82.79312 19673 ft 393 kts 348°
2026-05-06 18:45 28.48957 -82.79752 20119 ft 395 kts 348°
2026-05-06 18:45 28.51689 -82.80195 20564 ft 397 kts 348°
2026-05-06 18:45 28.54429 -82.80645 20994 ft 399 kts 348°
2026-05-06 18:46 28.57185 -82.81099 21423 ft 401 kts 347°
2026-05-06 18:46 28.59947 -82.81566 21847 ft 403 kts 347°
2026-05-06 18:46 28.62725 -82.82058 22273 ft 404 kts 346°
2026-05-06 18:46 28.65511 -82.82565 22690 ft 406 kts 346°
2026-05-06 18:47 28.68307 -82.83078 23106 ft 408 kts 346°
2026-05-06 18:47 28.71125 -82.83595 23510 ft 410 kts 346°
2026-05-06 18:47 28.73948 -82.84111 23871 ft 413 kts 345°
2026-05-06 18:47 28.76756 -82.84621 24197 ft 414 kts 345°
2026-05-06 18:48 28.79617 -82.85139 24526 ft 416 kts 345°
2026-05-06 18:48 28.82483 -82.85656 24861 ft 418 kts 345°
2026-05-06 18:48 28.85361 -82.86177 25169 ft 420 kts 345°
2026-05-06 18:48 28.88256 -82.86702 25487 ft 422 kts 345°
2026-05-06 18:49 28.91160 -82.87229 25799 ft 423 kts 345°
2026-05-06 18:49 28.94080 -82.87761 26112 ft 425 kts 345°
2026-05-06 18:49 28.97010 -82.88294 26426 ft 427 kts 345°
2026-05-06 18:49 28.99963 -82.88832 26743 ft 429 kts 345°
2026-05-06 18:50 29.02916 -82.89369 27054 ft 431 kts 345°
2026-05-06 18:50 29.05841 -82.89899 27362 ft 433 kts 345°
2026-05-06 18:50 29.08827 -82.90440 27664 ft 435 kts 345°
2026-05-06 18:50 29.11822 -82.90982 27966 ft 436 kts 345°
2026-05-06 18:51 29.14829 -82.91526 28251 ft 438 kts 345°
2026-05-06 18:51 29.17845 -82.92074 28535 ft 440 kts 345°
2026-05-06 18:51 29.20874 -82.92627 28819 ft 441 kts 345°
2026-05-06 18:51 29.23916 -82.93184 29094 ft 443 kts 345°
2026-05-06 18:52 29.26963 -82.93742 29370 ft 444 kts 345°
2026-05-06 18:52 29.30027 -82.94300 29643 ft 446 kts 345°
2026-05-06 18:52 29.33094 -82.94858 29914 ft 448 kts 344°
2026-05-06 18:52 29.36165 -82.95418 30268 ft 447 kts 344°
2026-05-06 18:53 29.39197 -82.95971 30616 ft 445 kts 344°
2026-05-06 18:53 29.42249 -82.96530 30968 ft 443 kts 344°
2026-05-06 18:53 29.45286 -82.97088 31322 ft 441 kts 344°
2026-05-06 18:53 29.48311 -82.97642 31678 ft 440 kts 344°
2026-05-06 18:54 29.51303 -82.98292 32028 ft 433 kts 338°
2026-05-06 18:54 29.54120 -82.99420 32379 ft 424 kts 331°
2026-05-06 18:54 29.56842 -83.00723 32730 ft 423 kts 331°
2026-05-06 18:54 29.59559 -83.02022 33091 ft 421 kts 331°
2026-05-06 18:55 29.62256 -83.03311 33442 ft 419 kts 331°
2026-05-06 18:55 29.64911 -83.04576 33794 ft 418 kts 331°
2026-05-06 18:55 29.67593 -83.05856 34053 ft 417 kts 331°
2026-05-06 18:56 29.72935 -83.08406 34103 ft 414 kts 331°
2026-05-06 18:56 29.78253 -83.10938 34100 ft 414 kts 331°
2026-05-06 18:57 29.83567 -83.13482 34102 ft 413 kts 331°
2026-05-06 18:57 29.88872 -83.16023 34102 ft 412 kts 330°
2026-05-06 18:58 29.94165 -83.18568 34100 ft 412 kts 330°
2026-05-06 18:58 29.99459 -83.21112 34103 ft 412 kts 330°
2026-05-06 18:59 30.04747 -83.23650 34101 ft 411 kts 330°
2026-05-06 18:59 30.09990 -83.26172 34109 ft 411 kts 330°
2026-05-06 19:00 30.15269 -83.28723 34110 ft 410 kts 330°
2026-05-06 19:00 30.20550 -83.31273 34108 ft 410 kts 330°
2026-05-06 19:01 30.25789 -83.33801 34100 ft 411 kts 330°
2026-05-06 19:01 30.31061 -83.36342 34098 ft 411 kts 330°
2026-05-06 19:02 30.36342 -83.38900 34101 ft 410 kts 330°
2026-05-06 19:02 30.41614 -83.41450 34100 ft 410 kts 330°
2026-05-06 19:03 30.46886 -83.44000 34099 ft 410 kts 330°
2026-05-06 19:03 30.52153 -83.46555 34096 ft 410 kts 330°
2026-05-06 19:04 30.57386 -83.49098 34097 ft 410 kts 330°
2026-05-06 19:04 30.62645 -83.51654 34093 ft 410 kts 329°
2026-05-06 19:05 30.67901 -83.54217 34091 ft 410 kts 329°
2026-05-06 19:05 30.73154 -83.56778 34098 ft 410 kts 329°
2026-05-06 19:06 30.78413 -83.59350 34099 ft 409 kts 329°
2026-05-06 19:06 30.83672 -83.61918 34101 ft 409 kts 329°
2026-05-06 19:07 30.88886 -83.64463 34101 ft 409 kts 329°
2026-05-06 19:07 30.94131 -83.67032 34090 ft 409 kts 329°
2026-05-06 19:08 30.99371 -83.69608 34084 ft 409 kts 329°
2026-05-06 19:08 31.04614 -83.72178 34088 ft 408 kts 329°
2026-05-06 19:09 31.09850 -83.74751 34083 ft 408 kts 329°
2026-05-06 19:09 31.15083 -83.77328 34086 ft 408 kts 329°
2026-05-06 19:10 31.20305 -83.79904 34083 ft 407 kts 329°
2026-05-06 19:10 31.25494 -83.82460 34088 ft 407 kts 329°
2026-05-06 19:11 31.30705 -83.85029 34089 ft 406 kts 329°
2026-05-06 19:11 31.35907 -83.87607 34097 ft 406 kts 329°
2026-05-06 19:12 31.41103 -83.90183 34087 ft 405 kts 329°
2026-05-06 19:12 31.46293 -83.92752 34085 ft 405 kts 328°
2026-05-06 19:13 31.51485 -83.95308 34086 ft 407 kts 332°
2026-05-06 19:13 31.54257 -83.96188 34091 ft 418 kts 340°
2026-05-06 19:13 31.57118 -83.96825 34089 ft 418 kts 339°
2026-05-06 19:14 31.62841 -83.98085 34087 ft 418 kts 339°
2026-05-06 19:14 31.68563 -83.99344 34085 ft 418 kts 339°
2026-05-06 19:15 31.74247 -84.00599 34083 ft 418 kts 339°
2026-05-06 19:15 31.79967 -84.01876 34078 ft 418 kts 339°
2026-05-06 19:16 31.85694 -84.03158 34067 ft 419 kts 339°
2026-05-06 19:16 31.91432 -84.04441 34064 ft 420 kts 339°
2026-05-06 19:17 31.97179 -84.05726 34058 ft 420 kts 339°
2026-05-06 19:17 32.02896 -84.07004 34060 ft 421 kts 339°
2026-05-06 19:18 32.08654 -84.08295 34058 ft 421 kts 339°
2026-05-06 19:18 32.14421 -84.09594 34052 ft 422 kts 339°
2026-05-06 19:19 32.20205 -84.10896 34055 ft 424 kts 339°
2026-05-06 19:19 32.26004 -84.12195 34055 ft 425 kts 339°
2026-05-06 19:20 32.31816 -84.13507 34052 ft 425 kts 339°
2026-05-06 19:20 32.37602 -84.14815 34046 ft 426 kts 339°
2026-05-06 19:21 32.43431 -84.16133 34040 ft 427 kts 339°
2026-05-06 19:21 32.49280 -84.17462 34043 ft 428 kts 339°
2026-05-06 19:22 32.55148 -84.18787 34038 ft 429 kts 340°
2026-05-06 19:22 32.61028 -84.20108 34044 ft 430 kts 340°
2026-05-06 19:23 32.66883 -84.21432 34048 ft 431 kts 340°
2026-05-06 19:23 32.69870 -84.21969 34053 ft 442 kts 348°
2026-05-06 19:23 32.72978 -84.21871 34060 ft 449 kts 353°
2026-05-06 19:24 32.79233 -84.21479 34067 ft 451 kts 353°
2026-05-06 19:24 32.85504 -84.21041 34069 ft 451 kts 353°
2026-05-06 19:25 32.91769 -84.20619 34072 ft 451 kts 353°
2026-05-06 19:25 32.98027 -84.20230 34071 ft 451 kts 353°
2026-05-06 19:26 33.04307 -84.19837 34072 ft 451 kts 353°
2026-05-06 19:26 33.10528 -84.19429 34062 ft 450 kts 353°
2026-05-06 19:27 33.16784 -84.19010 34052 ft 450 kts 352°
2026-05-06 19:27 33.23029 -84.18598 34060 ft 449 kts 352°
2026-05-06 19:28 33.29273 -84.18197 34076 ft 449 kts 352°
2026-05-06 19:28 33.35506 -84.17795 34073 ft 448 kts 352°
2026-05-06 19:29 33.41734 -84.17389 34076 ft 449 kts 352°
2026-05-06 19:29 33.47971 -84.16970 34069 ft 449 kts 352°
2026-05-06 19:30 33.54205 -84.16568 34063 ft 449 kts 352°
2026-05-06 19:30 33.60438 -84.16163 34037 ft 449 kts 352°
2026-05-06 19:31 33.66635 -84.15754 34043 ft 449 kts 352°
2026-05-06 19:31 33.75993 -84.15137 34042 ft 450 kts 353°
2026-05-06 19:32 33.82248 -84.14718 34049 ft 450 kts 353°
2026-05-06 19:32 33.88511 -84.14303 34042 ft 451 kts 353°
2026-05-06 19:33 33.94784 -84.13885 34046 ft 451 kts 353°
2026-05-06 19:33 34.01021 -84.13474 34048 ft 452 kts 353°
2026-05-06 19:34 34.07311 -84.13054 34041 ft 453 kts 353°
2026-05-06 19:34 34.13610 -84.12633 34036 ft 453 kts 353°
2026-05-06 19:35 34.19910 -84.12212 34032 ft 454 kts 353°
2026-05-06 19:35 34.26227 -84.11788 34035 ft 455 kts 353°
2026-05-06 19:36 34.32560 -84.11370 34036 ft 457 kts 353°
2026-05-06 19:36 34.38919 -84.10950 34030 ft 458 kts 353°
2026-05-06 19:37 34.45294 -84.10524 34020 ft 459 kts 353°
2026-05-06 19:37 34.50603 -84.10165 34020 ft 460 kts 353°
2026-05-06 19:38 34.58026 -84.09659 34022 ft 460 kts 353°
2026-05-06 19:38 34.64426 -84.09231 34033 ft 460 kts 353°
2026-05-06 19:39 34.70826 -84.08806 34044 ft 461 kts 353°
2026-05-06 19:39 34.77241 -84.08374 34053 ft 462 kts 353°
2026-05-06 19:40 34.83669 -84.07937 34054 ft 463 kts 352°
2026-05-06 19:40 34.90100 -84.07502 34055 ft 463 kts 352°
2026-05-06 19:41 34.96546 -84.07065 34049 ft 464 kts 352°
2026-05-06 19:41 35.01912 -84.06697 34038 ft 465 kts 352°
2026-05-06 19:42 35.08375 -84.06245 34042 ft 465 kts 352°
2026-05-06 19:42 35.15886 -84.05740 34053 ft 465 kts 352°
2026-05-06 19:43 35.21291 -84.05378 34051 ft 464 kts 352°
2026-05-06 19:43 35.27715 -84.04939 34045 ft 465 kts 352°
2026-05-06 19:44 35.34171 -84.04486 34031 ft 465 kts 352°
2026-05-06 19:44 35.40637 -84.04046 34014 ft 465 kts 352°
2026-05-06 19:45 35.47103 -84.03607 33964 ft 465 kts 353°
2026-05-06 19:45 35.53568 -84.03163 33969 ft 466 kts 353°
2026-05-06 19:46 35.60048 -84.02709 33971 ft 467 kts 353°
2026-05-06 19:46 35.66534 -84.02258 33993 ft 467 kts 353°
2026-05-06 19:47 35.73037 -84.01818 33988 ft 468 kts 353°
2026-05-06 19:47 35.79513 -84.01370 33993 ft 470 kts 352°
2026-05-06 19:48 35.86048 -84.00909 33988 ft 471 kts 353°
2026-05-06 19:48 35.89334 -84.00412 33987 ft 484 kts
2026-05-06 19:48 35.92608 -83.99217 33988 ft 499 kts 12°
2026-05-06 19:49 35.95770 -83.97297 33991 ft 512 kts 21°
2026-05-06 19:49 35.98861 -83.95090 33992 ft 513 kts 21°
2026-05-06 19:49 36.05056 -83.90658 33991 ft 515 kts 21°
2026-05-06 19:50 36.11238 -83.86229 33982 ft 517 kts 21°
2026-05-06 19:50 36.17472 -83.81765 33960 ft 518 kts 20°
2026-05-06 19:51 36.23712 -83.77293 33938 ft 519 kts 20°
2026-05-06 19:51 36.29979 -83.72799 33935 ft 521 kts 20°
2026-05-06 19:52 36.36264 -83.68282 33932 ft 523 kts 19°
2026-05-06 19:52 36.42556 -83.63734 33925 ft 524 kts 19°
2026-05-06 19:53 36.48850 -83.59173 33910 ft 523 kts 19°
2026-05-06 19:53 36.55143 -83.54619 33913 ft 523 kts 19°
2026-05-06 19:54 36.61380 -83.50096 33907 ft 522 kts 19°
2026-05-06 19:54 36.67650 -83.45532 33902 ft 522 kts 19°
2026-05-06 19:55 36.73929 -83.40964 33904 ft 522 kts 19°
2026-05-06 19:55 36.80199 -83.36389 33903 ft 522 kts 18°
2026-05-06 19:56 36.86458 -83.31795 33906 ft 522 kts 19°
2026-05-06 19:56 36.92722 -83.27193 33910 ft 522 kts 19°
2026-05-06 19:57 36.98943 -83.22607 33905 ft 522 kts 18°
2026-05-06 19:57 37.05204 -83.17978 33915 ft 522 kts 19°
2026-05-06 19:58 37.11462 -83.13346 33936 ft 522 kts 18°
2026-05-06 19:58 37.17713 -83.08712 33949 ft 522 kts 18°
2026-05-06 19:59 37.23960 -83.04065 33959 ft 521 kts 18°
2026-05-06 19:59 37.30237 -82.99611 33961 ft 516 kts 15°
2026-05-06 20:00 37.36617 -82.95519 33957 ft 514 kts 13°
2026-05-06 20:00 37.42966 -82.91506 33954 ft 515 kts 14°
2026-05-06 20:01 37.49336 -82.87352 33955 ft 516 kts 15°
2026-05-06 20:01 37.55690 -82.83110 33963 ft 517 kts 15°
2026-05-06 20:02 37.62048 -82.78877 33981 ft 517 kts 14°
2026-05-06 20:02 37.68407 -82.74674 33995 ft 516 kts 14°
2026-05-06 20:03 37.74773 -82.70472 34002 ft 516 kts 14°
2026-05-06 20:03 37.81134 -82.66258 33995 ft 515 kts 14°
2026-05-06 20:04 37.87474 -82.62039 33992 ft 515 kts 14°
2026-05-06 20:04 37.93809 -82.57808 33986 ft 515 kts 14°
2026-05-06 20:05 38.00104 -82.53597 33967 ft 515 kts 14°
2026-05-06 20:05 38.06445 -82.49359 33964 ft 515 kts 14°
2026-05-06 20:06 38.12780 -82.45120 33958 ft 515 kts 15°
2026-05-06 20:06 38.19123 -82.40862 33962 ft 516 kts 15°
2026-05-06 20:07 38.25470 -82.36580 33970 ft 517 kts 15°
2026-05-06 20:07 38.31826 -82.32284 33968 ft 517 kts 15°
2026-05-06 20:08 38.38194 -82.27981 33965 ft 518 kts 15°
2026-05-06 20:08 38.44520 -82.23698 33959 ft 519 kts 15°
2026-05-06 20:09 38.50901 -82.19356 33950 ft 520 kts 15°
2026-05-06 20:09 38.57284 -82.15007 33948 ft 520 kts 15°
2026-05-06 20:10 38.63683 -82.10652 33951 ft 521 kts 15°
2026-05-06 20:10 38.70103 -82.06324 33952 ft 516 kts 11°
2026-05-06 20:11 38.73392 -82.04713 33953 ft 496 kts
2026-05-06 20:11 38.76689 -82.03796 33952 ft 475 kts 351°
2026-05-06 20:11 38.79914 -82.03520 33952 ft 456 kts 342°
2026-05-06 20:11 38.83012 -82.03796 33954 ft 439 kts 335°
2026-05-06 20:12 38.86044 -82.04294 34082 ft 439 kts 341°
2026-05-06 20:12 38.88964 -82.04773 34004 ft 448 kts 352°
2026-05-06 20:12 38.92089 -82.05270 33906 ft 453 kts 339°
2026-05-06 20:12 38.95230 -82.05747 33958 ft 446 kts 336°
2026-05-06 20:13 39.01299 -82.06665 33954 ft 439 kts 335°
2026-05-06 20:13 39.07351 -82.07623 33940 ft 437 kts 335°
2026-05-06 20:14 39.13379 -82.08602 33954 ft 436 kts 335°
2026-05-06 20:14 39.19403 -82.09575 33946 ft 436 kts 335°
2026-05-06 20:15 39.25430 -82.10530 33950 ft 436 kts 335°
2026-05-06 20:15 39.31444 -82.11478 33950 ft 435 kts 335°
2026-05-06 20:16 39.37451 -82.12429 33949 ft 434 kts 335°
2026-05-06 20:16 39.43407 -82.13381 33954 ft 433 kts 335°
2026-05-06 20:17 39.49430 -82.14343 33946 ft 433 kts 335°
2026-05-06 20:17 39.55374 -82.15298 33959 ft 433 kts 335°
2026-05-06 20:18 39.61354 -82.16259 33958 ft 432 kts 335°
2026-05-06 20:18 39.67319 -82.17217 33959 ft 432 kts 335°
2026-05-06 20:19 39.73278 -82.18178 33954 ft 431 kts 335°
2026-05-06 20:19 39.79204 -82.19130 33959 ft 425 kts 335°
2026-05-06 20:20 39.85061 -82.20074 33961 ft 423 kts 334°
2026-05-06 20:20 39.90901 -82.21031 33965 ft 423 kts 334°
2026-05-06 20:21 39.96696 -82.21974 33968 ft 422 kts 334°
2026-05-06 20:21 40.02525 -82.22923 33971 ft 422 kts 334°
2026-05-06 20:22 40.08361 -82.23871 33972 ft 422 kts 334°
2026-05-06 20:22 40.14199 -82.24819 33970 ft 422 kts 334°
2026-05-06 20:23 40.19985 -82.25744 33935 ft 409 kts 334°
2026-05-06 20:23 40.22784 -82.26175 33703 ft 401 kts 333°
2026-05-06 20:23 40.25539 -82.26616 33443 ft 397 kts 333°
2026-05-06 20:24 40.28275 -82.27072 33183 ft 394 kts 333°
2026-05-06 20:24 40.30990 -82.27534 32928 ft 393 kts 333°
2026-05-06 20:24 40.33703 -82.27995 32674 ft 392 kts 333°
2026-05-06 20:24 40.36403 -82.28449 32425 ft 391 kts 333°
2026-05-06 20:25 40.39099 -82.28898 32178 ft 390 kts 333°
2026-05-06 20:25 40.41787 -82.29342 31932 ft 389 kts 333°
2026-05-06 20:25 40.44466 -82.29784 31689 ft 388 kts 333°
2026-05-06 20:25 40.47146 -82.30228 31452 ft 387 kts 333°
2026-05-06 20:26 40.49742 -82.30827 31216 ft 370 kts 326°
2026-05-06 20:26 40.52132 -82.31764 30982 ft 361 kts 323°
2026-05-06 20:26 40.54523 -82.32761 30745 ft 360 kts 323°
2026-05-06 20:26 40.56911 -82.33757 30511 ft 359 kts 323°
2026-05-06 20:27 40.59290 -82.34747 30293 ft 359 kts 323°
2026-05-06 20:27 40.61669 -82.35739 30065 ft 358 kts 323°
2026-05-06 20:27 40.64041 -82.36728 29793 ft 357 kts 323°
2026-05-06 20:27 40.66404 -82.37716 29519 ft 356 kts 323°
2026-05-06 20:28 40.68762 -82.38700 29245 ft 355 kts 323°
2026-05-06 20:28 40.71108 -82.39680 28980 ft 353 kts 323°
2026-05-06 20:28 40.73445 -82.40658 28707 ft 352 kts 323°
2026-05-06 20:28 40.75775 -82.41636 28448 ft 350 kts 323°
2026-05-06 20:29 40.78090 -82.42607 28181 ft 349 kts 323°
2026-05-06 20:29 40.80403 -82.43577 27925 ft 347 kts 323°
2026-05-06 20:29 40.82701 -82.44542 27670 ft 346 kts 323°
2026-05-06 20:29 40.84993 -82.45506 27417 ft 345 kts 323°
2026-05-06 20:30 40.87276 -82.46465 27161 ft 343 kts 323°
2026-05-06 20:30 40.91809 -82.48376 26667 ft 341 kts 323°
2026-05-06 20:30 40.94064 -82.49328 26425 ft 340 kts 323°
2026-05-06 20:31 40.96281 -82.50262 26189 ft 339 kts 323°
2026-05-06 20:31 40.98523 -82.51207 25950 ft 337 kts 324°
2026-05-06 20:31 41.00757 -82.52149 25714 ft 336 kts 324°
2026-05-06 20:31 41.02980 -82.53090 25477 ft 335 kts 324°
2026-05-06 20:32 41.05199 -82.54031 25242 ft 334 kts 324°
2026-05-06 20:32 41.07411 -82.54969 25017 ft 333 kts 324°
2026-05-06 20:32 41.09611 -82.55910 24789 ft 331 kts 324°
2026-05-06 20:32 41.11799 -82.56871 24560 ft 330 kts 324°
2026-05-06 20:33 41.13971 -82.57841 24331 ft 328 kts 324°
2026-05-06 20:33 41.16128 -82.58808 24098 ft 327 kts 324°
2026-05-06 20:33 41.18283 -82.59775 23867 ft 326 kts 324°
2026-05-06 20:33 41.20429 -82.60736 23159 ft 325 kts 324°
2026-05-06 20:34 41.22569 -82.61690 22339 ft 323 kts 325°
2026-05-06 20:34 41.24662 -82.62609 21913 ft 311 kts 326°
2026-05-06 20:34 41.26692 -82.63499 21526 ft 306 kts 325°
2026-05-06 20:34 41.28696 -82.64407 21148 ft 301 kts 323°
2026-05-06 20:35 41.30523 -82.65596 20788 ft 286 kts 315°
2026-05-06 20:35 41.32232 -82.66925 20426 ft 285 kts 315°
2026-05-06 20:35 41.33945 -82.68250 20065 ft 284 kts 316°
2026-05-06 20:35 41.35074 -82.69121 19850 ft 284 kts 316°
2026-05-06 20:36 41.36780 -82.70437 19490 ft 283 kts 316°
2026-05-06 20:36 41.38482 -82.71752 19139 ft 283 kts 316°
2026-05-06 20:36 41.40186 -82.73069 18795 ft 283 kts 317°
2026-05-06 20:36 41.42448 -82.74814 18334 ft 284 kts 317°
2026-05-06 20:37 41.43603 -82.75707 18076 ft 284 kts 317°
2026-05-06 20:37 41.45310 -82.77026 17714 ft 283 kts 318°
2026-05-06 20:37 41.47017 -82.78340 17372 ft 283 kts 318°
2026-05-06 20:37 41.48719 -82.79653 17038 ft 282 kts 318°
2026-05-06 20:38 41.50413 -82.80959 16698 ft 281 kts 318°
2026-05-06 20:38 41.52103 -82.82265 16363 ft 281 kts 318°
2026-05-06 20:38 41.53792 -82.83573 16037 ft 281 kts 319°
2026-05-06 20:38 41.55490 -82.84890 15699 ft 283 kts 319°
2026-05-06 20:39 41.57198 -82.86213 15364 ft 285 kts 319°
2026-05-06 20:39 41.58890 -82.87527 15033 ft 286 kts 319°
2026-05-06 20:39 41.60634 -82.88883 14692 ft 286 kts 320°
2026-05-06 20:39 41.62334 -82.90202 14354 ft 287 kts 320°
2026-05-06 20:40 41.64063 -82.91542 14015 ft 287 kts 320°
2026-05-06 20:40 41.65792 -82.92886 13649 ft 288 kts 321°
2026-05-06 20:40 41.67508 -82.94265 13269 ft 285 kts 316°
2026-05-06 20:40 41.69096 -82.95820 12914 ft 283 kts 316°
2026-05-06 20:41 41.70685 -82.97374 12543 ft 282 kts 316°
2026-05-06 20:41 41.72263 -82.98916 12184 ft 281 kts 317°
2026-05-06 20:41 41.73841 -83.00461 11822 ft 280 kts 317°
2026-05-06 20:41 41.75410 -83.02003 11448 ft 279 kts 317°
2026-05-06 20:42 41.76976 -83.03541 11081 ft 279 kts 318°
2026-05-06 20:42 41.78537 -83.05072 10708 ft 278 kts 318°
2026-05-06 20:42 41.80046 -83.06664 10333 ft 273 kts 310°
2026-05-06 20:42 41.81172 -83.08665 9956 ft 267 kts 295°
2026-05-06 20:43 41.81809 -83.10952 9657 ft 260 kts 281°
2026-05-06 20:43 41.82047 -83.13327 9346 ft 256 kts 276°
2026-05-06 20:43 41.82248 -83.15705 9048 ft 256 kts 276°
2026-05-06 20:43 41.82453 -83.18063 8749 ft 252 kts 276°
2026-05-06 20:44 41.82653 -83.20377 8457 ft 247 kts 276°
2026-05-06 20:44 41.82849 -83.22642 8181 ft 243 kts 276°
2026-05-06 20:44 41.83041 -83.24867 7907 ft 238 kts 276°
2026-05-06 20:44 41.83227 -83.27051 7632 ft 233 kts 276°
2026-05-06 20:45 41.83407 -83.29191 7414 ft 227 kts 276°
2026-05-06 20:45 41.83578 -83.31241 7342 ft 217 kts 276°
2026-05-06 20:45 41.83742 -83.33234 7256 ft 214 kts 276°
2026-05-06 20:45 41.83907 -83.35225 7164 ft 214 kts 276°
2026-05-06 20:46 41.84072 -83.37205 7069 ft 214 kts 276°
2026-05-06 20:46 41.84236 -83.39162 6973 ft 214 kts 277°
2026-05-06 20:46 41.84703 -83.41047 6814 ft 214 kts 302°
2026-05-06 20:46 41.85798 -83.42392 6731 ft 219 kts 331°
2026-05-06 20:47 41.87258 -83.42884 6677 ft 214 kts 350°
2026-05-06 20:47 41.88701 -83.43095 6632 ft 205 kts 350°
2026-05-06 20:47 41.90112 -83.43299 6576 ft 204 kts 350°
2026-05-06 20:47 41.91519 -83.43502 6399 ft 203 kts 351°
2026-05-06 20:48 41.92452 -83.43638 6223 ft 203 kts 350°
2026-05-06 20:48 41.92815 -83.43690 6160 ft 203 kts 351°
2026-05-06 20:48 41.94099 -83.43871 5921 ft 204 kts 351°
2026-05-06 20:48 41.95510 -83.44078 5658 ft 205 kts 350°
2026-05-06 20:49 41.96933 -83.44290 5399 ft 208 kts 350°
2026-05-06 20:49 41.98389 -83.44507 5125 ft 213 kts 350°
2026-05-06 20:49 41.99900 -83.44733 4840 ft 223 kts 351°
2026-05-06 20:49 42.01463 -83.44964 4512 ft 227 kts 351°
2026-05-06 20:50 42.03038 -83.45193 4237 ft 227 kts 351°
2026-05-06 20:50 42.04609 -83.45423 3947 ft 228 kts 351°
2026-05-06 20:50 42.06176 -83.45657 3652 ft 230 kts 351°
2026-05-06 20:50 42.07776 -83.45894 3350 ft 226 kts 351°
2026-05-06 20:51 42.09319 -83.46003 3110 ft 220 kts
2026-05-06 20:51 42.10748 -83.45360 2867 ft 215 kts 25°
2026-05-06 20:51 42.12024 -83.44419 2589 ft 209 kts 25°
2026-05-06 20:51 42.13278 -83.43496 2318 ft 202 kts 25°
2026-05-06 20:52 42.14495 -83.42602 2052 ft 198 kts 25°
2026-05-06 20:52 42.15675 -83.41736 1788 ft 187 kts 24°
2026-05-06 20:52 42.16777 -83.40926 1506 ft 174 kts 24°
2026-05-06 20:52 42.17781 -83.40187 1264 ft 156 kts 24°
2026-05-06 20:53 42.18702 -83.39511 1036 ft 148 kts 23°
2026-05-06 20:53 42.19593 -83.38858 836 ft 145 kts 22°
2026-05-06 20:53 42.20469 -83.38214 658 ft 140 kts 23°
2026-05-06 20:53 42.21206 -83.37680 647 ft 97 kts 29°
2026-05-06 20:54 42.21641 -83.37350 644 ft 37 kts 30°
2026-05-06 20:54 42.21802 -83.37180 645 ft 13 kts 64°
2026-05-06 20:54 42.21812 -83.37137 645 ft 0 kts 70°
2026-05-06 20:55 42.21813 -83.37131 645 ft 5 kts 70°
2026-05-06 20:55 42.21840 -83.37022 649 ft 13 kts 72°
2026-05-06 20:55 42.21886 -83.36924 649 ft 12 kts 37°
2026-05-06 20:55 42.21955 -83.36876 647 ft 11 kts 24°
2026-05-06 20:56 42.22013 -83.36827 647 ft 9 kts 41°
2026-05-06 20:56 42.22026 -83.36755 647 ft 8 kts 109°
2026-05-06 20:56 42.22004 -83.36696 647 ft 6 kts 118°
2026-05-06 20:56 42.21984 -83.36647 647 ft 6 kts 118°
2026-05-06 20:57 42.21934 -83.36523 647 ft 25 kts 118°
2026-05-06 20:57 42.21865 -83.36355 647 ft 14 kts 118°
2026-05-06 20:57 42.21821 -83.36247 648 ft 11 kts 117°
2026-05-06 20:57 42.21810 -83.36149 647 ft 10 kts 90°
2026-05-06 20:58 42.21811 -83.36058 647 ft 9 kts 88°
2026-05-06 20:58 42.21813 -83.35967 646 ft 10 kts 89°
2026-05-06 20:58 42.21814 -83.35868 645 ft 11 kts 89°
2026-05-06 20:58 42.21838 -83.35781 644 ft 10 kts 43°
2026-05-06 20:59 42.21891 -83.35738 645 ft 10 kts 28°
2026-05-06 20:59 42.21993 -83.35667 646 ft 18 kts 27°
2026-05-06 20:59 42.22095 -83.35589 647 ft 16 kts 29°
2026-05-06 20:59 42.22185 -83.35523 647 ft 14 kts 29°
2026-05-06 21:00 42.22262 -83.35464 647 ft 12 kts 29°
2026-05-06 21:00 42.22331 -83.35413 647 ft 11 kts 28°
2026-05-06 21:00 42.22370 -83.35346 647 ft 9 kts 94°
2026-05-06 21:00 42.22367 -83.35264 646 ft 9 kts 66°
2026-05-06 21:01 42.22400 -83.35202 648 ft 8 kts 54°
2026-05-06 21:01 42.22414 -83.35174 646 ft 1 kts 57°
2026-05-06 21:01 42.22415 -83.35172 646 ft 0 kts 57°
2026-05-06 21:01 42.22417 -83.35166 648 ft 3 kts 67°
2026-05-06 21:02 42.22412 -83.35143 649 ft 4 kts 118°
2026-05-06 21:02 42.22401 -83.35117 642 ft 3 kts 119°
2026-05-06 21:02 42.22393 -83.35099 642 ft 2 kts 120°
2026-05-06 21:02 42.22387 -83.35085 644 ft 2 kts 119°
2026-05-06 21:03 42.22378 -83.35062 646 ft 3 kts 118°
2026-05-06 21:03 42.22376 -83.35056 646 ft 0 kts 118°